NORTHERN QUEENS  -  Air Quality Alert Air Quality Alert        SOUTHERN QUEENS  -  Air Quality Alert Air Quality Alert      

Active alerts

Northern Queens
  Details for Northern Queens Air Quality Alert
Southern Queens
  Details for Southern Queens Air Quality Alert


WXM80 ListenWXM80 Stop

You find our weather info also at:

UK Metoffice

WeatherCloud

Weather Underground

Northeastern Weather Network

AWEKAS

Citizen Weather Observer Program (CWOP)

HAMweather, WeatherForYou, PWS Weather


Weather Underground History page Text

Daily Summary for October 16, 2017 Units:  Metric    English   Both
« Previous Day
Next Day »
Daily Weekly Monthly Yearly Custom
  High: Low: Average:
Temperature: 20.4 °C 9.7 °C 15.3 °C
Dew Point: 19.2 °C 4.1 °C 10.6 °C
Humidity: 94 % 65 % 74 %
Wind Speed: 17.2 km/h 0.2 km/h 7.4 km/h
Wind Gust: 29.6 km/h - -
Wind:- - SW
Pressure: 1020.9 hPa 1007.3 hPa -
Precipitation: 0 mm    
Historical Graphs
 
 
Tabular Data for October 16, 2017
Time Temperature Dew Point Pressure Wind Wind Speed Wind Gust Humidity Rainfall Rate (Hourly)
00:00 19.9 °C 18.8 °C 1007.7 hPa SSW 6 km/h 12.9 km/h 93 % 0 mm
00:05 19.9 °C 18.8 °C 1008 hPa SSW 4.7 km/h 13 km/h 93 % 0 mm
00:10 20 °C 18.8 °C 1007.7 hPa SSW 1.8 km/h 7.4 km/h 93 % 0 mm
00:15 20 °C 18.8 °C 1007.7 hPa South 6.4 km/h 11.1 km/h 93 % 0 mm
00:20 20.1 °C 18.9 °C 1007.7 hPa SSW 3.4 km/h 12.9 km/h 93 % 0 mm
00:25 20.1 °C 18.9 °C 1007.3 hPa SSW 0.6 km/h 5.6 km/h 93 % 0 mm
00:30 20.1 °C 19.1 °C 1007.7 hPa WSW 6.1 km/h 9.3 km/h 94 % 0 mm
00:36 20.1 °C 18.9 °C 1007.7 hPa WSW 9.7 km/h 19.3 km/h 93 % 0 mm
00:41 20.1 °C 18.9 °C 1007.7 hPa WSW 3.2 km/h 11.3 km/h 93 % 0 mm
00:45 20.2 °C 19 °C 1007.7 hPa WSW 1.3 km/h 5.6 km/h 93 % 0 mm
00:51 20.2 °C 19 °C 1008 hPa WSW 8 km/h 19.3 km/h 93 % 0 mm
00:56 20.2 °C 19.1 °C 1008 hPa SW 8 km/h 19.3 km/h 93 % 0 mm
01:01 20.2 °C 19.1 °C 1008.4 hPa WSW 2.6 km/h 7.4 km/h 93 % 0 mm
01:06 20.3 °C 19.1 °C 1007.7 hPa WSW 2.7 km/h 9.3 km/h 93 % 0 mm
01:11 20.3 °C 19.1 °C 1008 hPa WSW 1.1 km/h 11.3 km/h 93 % 0 mm
01:16 20.3 °C 19.1 °C 1007.7 hPa WSW 6.3 km/h 16.7 km/h 93 % 0 mm
01:21 20.3 °C 19.1 °C 1007.7 hPa SSW 8 km/h 14.8 km/h 93 % 0 mm
01:26 20.3 °C 19.2 °C 1007.3 hPa WSW 1.8 km/h 11.1 km/h 93 % 0 mm
01:31 20.3 °C 19 °C 1007.3 hPa SSW 5.1 km/h 9.3 km/h 92 % 0 mm
01:36 20.3 °C 19 °C 1007.3 hPa SSW 5.5 km/h 11.3 km/h 92 % 0 mm
01:41 20.3 °C 19 °C 1007.3 hPa WSW 5.5 km/h 9.7 km/h 92 % 0 mm
01:46 20.3 °C 19 °C 1007.3 hPa WSW 4.7 km/h 7.4 km/h 92 % 0 mm
01:51 20.4 °C 19.1 °C 1007.3 hPa WSW 7.9 km/h 12.9 km/h 92 % 0 mm
01:56 20.3 °C 19 °C 1007.3 hPa West 5 km/h 9.3 km/h 92 % 0 mm
02:01 20.4 °C 19.1 °C 1007.3 hPa SW 1.1 km/h 5.6 km/h 92 % 0 mm
02:06 20.4 °C 19.1 °C 1008 hPa WNW 6 km/h 11.1 km/h 92 % 0 mm
02:11 20.4 °C 19.1 °C 1008 hPa WNW 3.2 km/h 5.6 km/h 92 % 0 mm
02:16 20.4 °C 18.9 °C 1008 hPa NW 7.7 km/h 14.8 km/h 91 % 0 mm
02:21 20.3 °C 18.6 °C 1008 hPa NE 5 km/h 14.8 km/h 90 % 0 mm
02:26 20.3 °C 18.6 °C 1008.4 hPa WNW 4.5 km/h 8 km/h 90 % 0 mm
02:31 20.2 °C 18.3 °C 1008.7 hPa NW 4 km/h 12.9 km/h 89 % 0 mm
02:36 20.1 °C 18.1 °C 1008.4 hPa ESE 7.9 km/h 18.5 km/h 88 % 0 mm
02:41 20 °C 17.8 °C 1008.4 hPa WNW 7.9 km/h 16.7 km/h 87 % 0 mm
02:46 19.9 °C 17.6 °C 1008.7 hPa NNW 7.6 km/h 22.2 km/h 86 % 0 mm
02:51 19.8 °C 17.4 °C 1008.7 hPa NNW 7.1 km/h 13 km/h 86 % 0 mm
02:56 19.8 °C 17.4 °C 1008.4 hPa WNW 4 km/h 11.3 km/h 86 % 0 mm
03:01 19.7 °C 17.1 °C 1007.7 hPa NW 3.7 km/h 14.8 km/h 85 % 0 mm
03:06 19.7 °C 17.1 °C 1008 hPa West 9.8 km/h 13 km/h 85 % 0 mm
03:11 19.7 °C 17.3 °C 1008 hPa WSW 5 km/h 11.1 km/h 86 % 0 mm
03:16 19.6 °C 16.4 °C 1008.7 hPa West 11.3 km/h 18.5 km/h 82 % 0 mm
03:21 19.4 °C 15.7 °C 1008 hPa NW 17.2 km/h 27.8 km/h 79 % 0 mm
03:26 19.4 °C 15.7 °C 1008.7 hPa WNW 9 km/h 13 km/h 79 % 0 mm
03:31 19.3 °C 15.4 °C 1009 hPa NW 8.9 km/h 14.8 km/h 78 % 0 mm
03:36 19.3 °C 15.4 °C 1008.7 hPa North 10.9 km/h 19.3 km/h 78 % 0 mm
03:41 19.3 °C 15.3 °C 1008.7 hPa NW 7.2 km/h 20.4 km/h 78 % 0 mm
03:46 19.3 °C 15.3 °C 1009 hPa NW 9.3 km/h 16.7 km/h 78 % 0 mm
03:51 19.2 °C 15.5 °C 1009 hPa NW 5 km/h 13 km/h 79 % 0 mm
03:56 19.2 °C 15.2 °C 1009 hPa WNW 9 km/h 11.1 km/h 78 % 0 mm
04:01 19.1 °C 15.4 °C 1008.7 hPa WNW 7.6 km/h 19.3 km/h 79 % 0 mm
04:06 19 °C 15.3 °C 1008.7 hPa NNW 7.9 km/h 18.5 km/h 79 % 0 mm
04:11 18.9 °C 15 °C 1009 hPa NNW 13.8 km/h 24.1 km/h 78 % 0 mm
04:16 18.8 °C 14.7 °C 1008.7 hPa West 7.2 km/h 13 km/h 77 % 0 mm
04:21 18.8 °C 14.8 °C 1009 hPa West 13.2 km/h 19.3 km/h 78 % 0 mm
04:26 18.6 °C 14.7 °C 1008.7 hPa WNW 13.8 km/h 24.1 km/h 78 % 0 mm
04:31 18.5 °C 15 °C 1008.7 hPa NW 9 km/h 19.3 km/h 80 % 0 mm
04:36 18.3 °C 15 °C 1008.7 hPa WSW 10.8 km/h 16.7 km/h 81 % 0 mm
04:41 18.2 °C 15.1 °C 1008.7 hPa WNW 7.9 km/h 14.8 km/h 82 % 0 mm
04:46 18.1 °C 14.9 °C 1008.7 hPa West 9.7 km/h 24.1 km/h 82 % 0 mm
04:51 17.9 °C 15 °C 1008.7 hPa WNW 4 km/h 8 km/h 83 % 0 mm
04:56 17.9 °C 14.9 °C 1009 hPa NW 5.3 km/h 11.1 km/h 83 % 0 mm
05:01 17.8 °C 15.1 °C 1009 hPa WNW 6.1 km/h 11.1 km/h 84 % 0 mm
05:06 17.7 °C 15.2 °C 1009 hPa WNW 4.8 km/h 7.4 km/h 85 % 0 mm
05:11 17.7 °C 15.1 °C 1009.4 hPa NW 10.9 km/h 11.3 km/h 85 % 0 mm
05:16 17.6 °C 14.8 °C 1009.4 hPa SW 5.8 km/h 11.1 km/h 84 % 0 mm
05:21 17.5 °C 14.6 °C 1009.7 hPa WNW 7.2 km/h 11.3 km/h 83 % 0 mm
05:27 17.4 °C 14.5 °C 1009.4 hPa SW 2.4 km/h 13 km/h 83 % 0 mm
05:32 17.4 °C 14.7 °C 1009.7 hPa NNW 5.1 km/h 6.4 km/h 84 % 0 mm
05:37 17.4 °C 14.7 °C 1009.4 hPa WNW 8.5 km/h 16.7 km/h 84 % 0 mm
05:42 17.3 °C 14.4 °C 1009.4 hPa NNW 6.3 km/h 18.5 km/h 83 % 0 mm
05:47 17.3 °C 14.4 °C 1009.4 hPa WNW 5.8 km/h 9.7 km/h 83 % 0 mm
05:52 17.3 °C 14.4 °C 1009.4 hPa WNW 3.5 km/h 7.4 km/h 83 % 0 mm
05:57 17.3 °C 14.4 °C 1009.4 hPa West 2.4 km/h 14.8 km/h 83 % 0 mm
06:02 17.3 °C 14.2 °C 1009.7 hPa NNW 6.1 km/h 14.8 km/h 82 % 0 mm
06:07 17.3 °C 14.2 °C 1010 hPa North 5.1 km/h 11.1 km/h 82 % 0 mm
06:12 17.3 °C 14.2 °C 1009.7 hPa WNW 4.2 km/h 11.3 km/h 82 % 0 mm
06:17 17.3 °C 14 °C 1010 hPa NW 4.5 km/h 14.8 km/h 81 % 0 mm
06:22 17.2 °C 13.7 °C 1010 hPa NNE 4.8 km/h 9.3 km/h 80 % 0 mm
06:27 17.2 °C 13.7 °C 1010.4 hPa West 10.5 km/h 18.5 km/h 80 % 0 mm
06:32 17.2 °C 13.3 °C 1010.4 hPa WNW 3.7 km/h 9.3 km/h 78 % 0 mm
06:37 17.1 °C 13.1 °C 1010.4 hPa NNW 8 km/h 16.7 km/h 77 % 0 mm
06:42 17.1 °C 13.2 °C 1010.4 hPa WSW 13 km/h 25.7 km/h 78 % 0 mm
06:47 17.1 °C 13.2 °C 1010.4 hPa NW 0.8 km/h 16.7 km/h 78 % 0 mm
06:52 17 °C 13.1 °C 1010.7 hPa NW 2.9 km/h 9.7 km/h 78 % 0 mm
06:57 17 °C 13.3 °C 1010.4 hPa NW 4.8 km/h 16.7 km/h 79 % 0 mm
07:02 16.9 °C 13.3 °C 1010.4 hPa WNW 7.1 km/h 12.9 km/h 79 % 0 mm
07:08 16.9 °C 13.1 °C 1010.7 hPa West 8.9 km/h 14.8 km/h 78 % 0 mm
07:13 16.9 °C 13 °C 1011.1 hPa NNW 3.5 km/h 9.3 km/h 78 % 0 mm
07:18 16.8 °C 13 °C 1010.7 hPa WNW 1.1 km/h 3.7 km/h 78 % 0 mm
07:23 16.8 °C 12.9 °C 1011.1 hPa NW 5.5 km/h 18.5 km/h 78 % 0 mm
07:28 16.7 °C 12.4 °C 1011.1 hPa WNW 3.7 km/h 20.4 km/h 76 % 0 mm
07:33 16.7 °C 12.4 °C 1011.1 hPa North 5.3 km/h 14.8 km/h 76 % 0 mm
07:38 16.6 °C 12.3 °C 1011.4 hPa NW 7.4 km/h 20.4 km/h 76 % 0 mm
07:43 16.6 °C 12.1 °C 1011.7 hPa WNW 10.5 km/h 29.6 km/h 75 % 0 mm
07:48 16.5 °C 12.3 °C 1011.4 hPa West 8.5 km/h 14.8 km/h 76 % 0 mm
07:53 16.4 °C 12 °C 1011.7 hPa NW 11.4 km/h 22.2 km/h 75 % 0 mm
07:58 16.4 °C 12 °C 1011.7 hPa WNW 7.4 km/h 14.8 km/h 75 % 0 mm
08:03 16.3 °C 11.7 °C 1011.7 hPa North 10 km/h 18.5 km/h 74 % 0 mm
08:08 16.3 °C 11.2 °C 1011.7 hPa NNW 9.2 km/h 22.2 km/h 72 % 0 mm
08:13 16.2 °C 10.9 °C 1012.1 hPa WNW 11.6 km/h 20.9 km/h 71 % 0 mm
08:18 16.2 °C 11.1 °C 1012.1 hPa WNW 10 km/h 20.4 km/h 72 % 0 mm
08:23 16.1 °C 10.6 °C 1012.1 hPa NNW 10.8 km/h 20.9 km/h 70 % 0 mm
08:28 15.9 °C 10.3 °C 1012.4 hPa West 6.8 km/h 22.2 km/h 69 % 0 mm
08:34 15.9 °C 10 °C 1012.4 hPa WNW 7.9 km/h 16.7 km/h 68 % 0 mm
08:39 15.8 °C 9.9 °C 1012.4 hPa SW 7.4 km/h 13 km/h 68 % 0 mm
08:44 15.7 °C 9.8 °C 1012.4 hPa West 3.2 km/h 14.8 km/h 68 % 0 mm
08:49 15.7 °C 10.3 °C 1012.4 hPa NW 9.2 km/h 14.8 km/h 70 % 0 mm
08:54 15.7 °C 10.4 °C 1012.8 hPa NNE 1.9 km/h 14.8 km/h 71 % 0 mm
08:59 15.7 °C 10.6 °C 1012.4 hPa WNW 6.9 km/h 9.3 km/h 72 % 0 mm
09:04 15.6 °C 10.2 °C 1012.8 hPa NNW 6.1 km/h 16.7 km/h 70 % 0 mm
09:09 15.6 °C 9.9 °C 1012.4 hPa West 2.4 km/h 7.4 km/h 69 % 0 mm
09:14 15.5 °C 9.6 °C 1012.8 hPa WNW 9.5 km/h 18.5 km/h 68 % 0 mm
09:19 15.5 °C 10.1 °C 1013.1 hPa NNW 5.3 km/h 9.3 km/h 70 % 0 mm
09:24 15.5 °C 10.3 °C 1013.1 hPa NNE 2.9 km/h 9.3 km/h 71 % 0 mm
09:29 15.5 °C 10.4 °C 1012.8 hPa NNE 3.4 km/h 13 km/h 72 % 0 mm
09:34 15.4 °C 10.4 °C 1012.8 hPa WNW 9 km/h 13 km/h 72 % 0 mm
09:39 15.4 °C 10.2 °C 1013.4 hPa WNW 10.5 km/h 16.1 km/h 71 % 0 mm
09:44 15.4 °C 9.9 °C 1013.8 hPa WSW 9.2 km/h 16.7 km/h 70 % 0 mm
09:49 15.3 °C 9.7 °C 1013.4 hPa WNW 2.9 km/h 22.2 km/h 69 % 0 mm
09:54 15.3 °C 9.6 °C 1013.1 hPa West 6.3 km/h 13 km/h 69 % 0 mm
09:59 15.2 °C 9.7 °C 1013.1 hPa WNW 6.1 km/h 7.4 km/h 70 % 0 mm
10:05 15.1 °C 9.8 °C 1013.4 hPa NNW 4.5 km/h 11.1 km/h 71 % 0 mm
10:10 15 °C 9.8 °C 1013.4 hPa NNW 4 km/h 9.3 km/h 71 % 0 mm
10:15 14.9 °C 9.5 °C 1013.1 hPa NW 8.2 km/h 13 km/h 70 % 0 mm
10:20 14.9 °C 9.4 °C 1013.8 hPa NW 4.3 km/h 11.1 km/h 70 % 0 mm
10:25 14.9 °C 9.7 °C 1013.4 hPa NNW 5.3 km/h 7.4 km/h 71 % 0 mm
10:30 14.9 °C 9.9 °C 1013.4 hPa SW 6.8 km/h 14.8 km/h 72 % 0 mm
10:35 15.1 °C 10.1 °C 1013.4 hPa NNE 3.9 km/h 13 km/h 72 % 0 mm
10:40 15.1 °C 9.9 °C 1014.1 hPa NE 4.5 km/h 9.3 km/h 71 % 0 mm
10:45 15.1 °C 9.7 °C 1013.8 hPa WNW 4.7 km/h 9.3 km/h 70 % 0 mm
10:50 15.1 °C 9.7 °C 1014.1 hPa West 5.5 km/h 14.8 km/h 70 % 0 mm
10:55 15.1 °C 9.9 °C 1014.1 hPa NW 3.7 km/h 8 km/h 71 % 0 mm
11:00 15.1 °C 10.1 °C 1013.4 hPa NNE 5.5 km/h 11.1 km/h 72 % 0 mm
11:05 15.1 °C 10.1 °C 1014.1 hPa WNW 4.5 km/h 9.3 km/h 72 % 0 mm
11:10 15.2 °C 10.2 °C 1013.8 hPa NW 9.8 km/h 14.8 km/h 72 % 0 mm
11:15 15.3 °C 10.7 °C 1013.8 hPa NW 0.2 km/h 1.9 km/h 74 % 0 mm
11:20 15.4 °C 10.4 °C 1013.8 hPa NW 5.6 km/h 9.3 km/h 72 % 0 mm
11:25 15.5 °C 10.4 °C 1013.4 hPa NNE 8.4 km/h 14.8 km/h 72 % 0 mm
11:30 15.7 °C 10.6 °C 1013.4 hPa NNE 8.7 km/h 18.5 km/h 72 % 0 mm
11:35 15.8 °C 10.3 °C 1013.8 hPa NNE 3.5 km/h 19.3 km/h 70 % 0 mm
11:40 15.8 °C 10.3 °C 1014.1 hPa West 2.9 km/h 11.3 km/h 70 % 0 mm
11:45 15.8 °C 10.1 °C 1014.1 hPa NNW 4.3 km/h 9.3 km/h 69 % 0 mm
11:50 15.7 °C 10.4 °C 1014.1 hPa North 5.1 km/h 8 km/h 71 % 0 mm
11:55 15.6 °C 10.2 °C 1014.1 hPa North 3.9 km/h 7.4 km/h 70 % 0 mm
12:00 15.6 °C 10.3 °C 1014.1 hPa North 4.3 km/h 14.8 km/h 71 % 0 mm
12:05 15.6 °C 9.9 °C 1014.4 hPa North 3.9 km/h 9.3 km/h 69 % 0 mm
12:10 15.5 °C 10.1 °C 1014.8 hPa North 4.3 km/h 11.1 km/h 70 % 0 mm
12:15 15.5 °C 10.1 °C 1014.8 hPa WNW 4.8 km/h 13 km/h 70 % 0 mm
12:20 15.4 °C 10 °C 1014.4 hPa North 2.9 km/h 11.3 km/h 70 % 0 mm
12:25 15.4 °C 10 °C 1013.8 hPa NE 5.6 km/h 8 km/h 70 % 0 mm
12:26 15.4 °C 9.9 °C 1013.8 hPa NE 6.6 km/h 9.7 km/h 70 % 0 mm
12:31 15.3 °C 9.7 °C 1013.8 hPa NNE 6.1 km/h 14.8 km/h 69 % 0 mm
12:36 15.2 °C 9.6 °C 1014.1 hPa NNE 7.9 km/h 11.3 km/h 69 % 0 mm
12:41 15.2 °C 9.8 °C 1014.1 hPa WNW 7.7 km/h 16.7 km/h 70 % 0 mm
12:46 15.2 °C 9.7 °C 1014.1 hPa WNW 3.4 km/h 7.4 km/h 70 % 0 mm
12:51 15.2 °C 9.7 °C 1014.4 hPa NNE 5.3 km/h 14.8 km/h 70 % 0 mm
12:52 15.2 °C 10 °C 1014.4 hPa NNW 6.9 km/h 7.4 km/h 71 % 0 mm
12:57 15.3 °C 9.7 °C 1013.8 hPa NNE 8.2 km/h 16.7 km/h 69 % 0 mm
13:03 15.5 °C 10.1 °C 1014.1 hPa North 3.7 km/h 13 km/h 70 % 0 mm
13:08 15.5 °C 9.6 °C 1013.8 hPa North 4.5 km/h 9.7 km/h 68 % 0 mm
13:13 15.5 °C 9.6 °C 1013.8 hPa NNW 2.4 km/h 16.7 km/h 68 % 0 mm
13:18 15.4 °C 9.6 °C 1013.4 hPa NNW 9.7 km/h 13 km/h 68 % 0 mm
13:23 15.4 °C 9.5 °C 1013.4 hPa North 4.3 km/h 18.5 km/h 68 % 0 mm
13:28 15.3 °C 9.2 °C 1013.4 hPa North 8.7 km/h 18.5 km/h 67 % 0 mm
13:33 15.2 °C 9.1 °C 1013.4 hPa North 6.8 km/h 14.8 km/h 67 % 0 mm
13:38 15.1 °C 9.6 °C 1013.8 hPa West 6 km/h 18.5 km/h 70 % 0 mm
13:43 14.9 °C 9.3 °C 1013.8 hPa NNE 7.1 km/h 13 km/h 69 % 0 mm
13:48 14.8 °C 9.2 °C 1014.1 hPa North 6.8 km/h 13 km/h 69 % 0 mm
13:53 14.8 °C 8.7 °C 1014.1 hPa NNW 13 km/h 18.5 km/h 67 % 0 mm
13:54 14.8 °C 8.7 °C 1014.1 hPa North 5.8 km/h 18.5 km/h 67 % 0 mm
13:59 14.7 °C 8.9 °C 1013.8 hPa NNE 3.2 km/h 9.3 km/h 68 % 0 mm
14:04 14.7 °C 9.1 °C 1014.1 hPa NNW 5.3 km/h 12.9 km/h 69 % 0 mm
14:09 14.7 °C 9.1 °C 1013.8 hPa North 9.7 km/h 17.7 km/h 69 % 0 mm
14:14 14.6 °C 8.6 °C 1014.1 hPa NE 6.8 km/h 11.1 km/h 67 % 0 mm
14:19 14.6 °C 8.5 °C 1014.1 hPa NNW 8 km/h 13 km/h 67 % 0 mm
14:24 14.6 °C 8.5 °C 1014.4 hPa North 3.2 km/h 13 km/h 67 % 0 mm
14:29 14.6 °C 8.5 °C 1014.4 hPa NNE 2.7 km/h 8 km/h 67 % 0 mm
14:34 14.5 °C 8.7 °C 1014.4 hPa North 7.4 km/h 16.7 km/h 68 % 0 mm
14:39 14.4 °C 8.6 °C 1014.1 hPa NNE 8.9 km/h 20.4 km/h 68 % 0 mm
14:44 14.3 °C 8.9 °C 1014.4 hPa NNW 5.8 km/h 22.2 km/h 70 % 0 mm
14:49 14.3 °C 8.9 °C 1014.4 hPa North 6.8 km/h 18.5 km/h 70 % 0 mm
14:55 14.5 °C 8.9 °C 1014.4 hPa North 10.8 km/h 18.5 km/h 69 % 0 mm
15:00 14.6 °C 8.8 °C 1014.4 hPa NNE 8.2 km/h 18.5 km/h 68 % 0 mm
15:05 14.7 °C 8.8 °C 1014.4 hPa North 9.3 km/h 14.8 km/h 68 % 0 mm
15:10 14.7 °C 8.7 °C 1014.4 hPa North 6.6 km/h 16.1 km/h 67 % 0 mm
15:15 14.8 °C 8.7 °C 1014.8 hPa NNE 5.6 km/h 18.5 km/h 67 % 0 mm
15:20 14.8 °C 8.5 °C 1015.1 hPa NNW 3.7 km/h 13 km/h 66 % 0 mm
15:25 14.8 °C 8.8 °C 1015.1 hPa North 6.6 km/h 16.1 km/h 67 % 0 mm
15:30 14.8 °C 8.3 °C 1014.8 hPa NW 8.5 km/h 16.7 km/h 65 % 0 mm
15:35 14.8 °C 8.8 °C 1014.8 hPa WNW 5.3 km/h 11.1 km/h 67 % 0 mm
15:40 14.8 °C 8.6 °C 1015.1 hPa North 5 km/h 13 km/h 66 % 0 mm
15:45 14.8 °C 8.5 °C 1015.1 hPa NNE 8.7 km/h 14.8 km/h 66 % 0 mm
15:50 14.8 °C 8.7 °C 1014.8 hPa North 3.9 km/h 18.5 km/h 67 % 0 mm
15:55 14.8 °C 8.5 °C 1015.1 hPa NNW 6 km/h 11.1 km/h 66 % 0 mm
16:00 14.7 °C 8.4 °C 1015.1 hPa North 6.1 km/h 14.8 km/h 66 % 0 mm
16:05 14.6 °C 8.3 °C 1015.1 hPa NNW 10.8 km/h 16.7 km/h 66 % 0 mm
16:10 14.5 °C 8.2 °C 1015.1 hPa North 5.8 km/h 13 km/h 66 % 0 mm
16:15 14.3 °C 8.1 °C 1015.1 hPa NW 5.8 km/h 13 km/h 66 % 0 mm
16:20 14.2 °C 8.2 °C 1014.8 hPa NNW 4.7 km/h 12.9 km/h 67 % 0 mm
16:25 14.1 °C 8 °C 1015.1 hPa North 12.7 km/h 18.5 km/h 67 % 0 mm
16:30 13.9 °C 7.9 °C 1015.1 hPa NNE 10 km/h 18.5 km/h 67 % 0 mm
16:35 13.8 °C 8 °C 1015.1 hPa NNE 8.2 km/h 18.5 km/h 68 % 0 mm
16:40 13.8 °C 8.2 °C 1015.5 hPa North 1.6 km/h 11.1 km/h 69 % 0 mm
16:45 13.8 °C 8.2 °C 1015.5 hPa NW 4.8 km/h 13 km/h 69 % 0 mm
16:50 13.7 °C 7.9 °C 1015.5 hPa North 7.6 km/h 18.5 km/h 68 % 0 mm
16:55 13.6 °C 7.8 °C 1015.8 hPa North 5 km/h 16.7 km/h 68 % 0 mm
17:00 13.6 °C 7.6 °C 1015.8 hPa North 10.5 km/h 18.5 km/h 67 % 0 mm
17:05 13.5 °C 7.5 °C 1015.8 hPa NNW 7.2 km/h 11.1 km/h 67 % 0 mm
17:10 13.4 °C 7.7 °C 1015.8 hPa NNW 6.9 km/h 13 km/h 68 % 0 mm
17:15 13.3 °C 7.3 °C 1016.1 hPa WNW 7.1 km/h 18.5 km/h 67 % 0 mm
17:20 13.3 °C 7.3 °C 1016.1 hPa NNE 11.3 km/h 18.5 km/h 67 % 0 mm
17:26 13.2 °C 7.7 °C 1016.1 hPa NE 6.4 km/h 14.8 km/h 69 % 0 mm
17:31 13.2 °C 7.4 °C 1016.5 hPa NE 8.4 km/h 9.7 km/h 68 % 0 mm
17:36 13.2 °C 7.6 °C 1016.5 hPa NNE 5.1 km/h 11.1 km/h 69 % 0 mm
17:41 13.1 °C 7.3 °C 1016.5 hPa North 3.2 km/h 14.5 km/h 68 % 0 mm
17:46 13.1 °C 7.5 °C 1016.5 hPa North 8 km/h 19.3 km/h 69 % 0 mm
17:51 13 °C 7.4 °C 1016.5 hPa NNW 4.8 km/h 19.3 km/h 69 % 0 mm
17:56 12.9 °C 7.4 °C 1016.5 hPa North 8 km/h 20.9 km/h 69 % 0 mm
18:01 12.9 °C 7.8 °C 1016.8 hPa NW 5.1 km/h 16.7 km/h 71 % 0 mm
18:06 12.8 °C 7.5 °C 1016.8 hPa NNE 7.1 km/h 13 km/h 70 % 0 mm
18:11 12.8 °C 7.3 °C 1016.5 hPa NNE 6.6 km/h 16.7 km/h 69 % 0 mm
18:16 12.8 °C 7.4 °C 1016.8 hPa NE 4 km/h 14.8 km/h 70 % 0 mm
18:21 12.7 °C 7.3 °C 1016.8 hPa North 10.5 km/h 14.8 km/h 70 % 0 mm
18:26 12.7 °C 7.3 °C 1016.8 hPa NE 11.9 km/h 18.5 km/h 70 % 0 mm
18:31 12.6 °C 7.4 °C 1016.8 hPa NE 11.9 km/h 19.3 km/h 71 % 0 mm
18:36 12.5 °C 6.9 °C 1017.2 hPa NNW 12.7 km/h 19.3 km/h 69 % 0 mm
18:41 12.5 °C 7.2 °C 1017.5 hPa NNE 6.8 km/h 16.7 km/h 70 % 0 mm
18:46 12.4 °C 7.1 °C 1017.5 hPa NNW 11.4 km/h 17.7 km/h 70 % 0 mm
18:51 12.4 °C 6.9 °C 1017.2 hPa North 12.6 km/h 18.5 km/h 69 % 0 mm
18:56 12.4 °C 7.1 °C 1017.5 hPa NNW 10.3 km/h 16.1 km/h 70 % 0 mm
19:01 12.3 °C 7 °C 1017.5 hPa NW 14.6 km/h 19.3 km/h 70 % 0 mm
19:06 12.3 °C 6.8 °C 1017.5 hPa NNE 5 km/h 13 km/h 69 % 0 mm
19:11 12.3 °C 6.8 °C 1017.8 hPa North 9.3 km/h 14.8 km/h 69 % 0 mm
19:16 12.3 °C 6.9 °C 1017.8 hPa NE 8.9 km/h 16.7 km/h 70 % 0 mm
19:21 12.2 °C 6.9 °C 1017.8 hPa North 11.3 km/h 16.7 km/h 70 % 0 mm
19:26 12.2 °C 6.7 °C 1017.8 hPa NE 6.1 km/h 14.8 km/h 69 % 0 mm
19:31 12.1 °C 6.6 °C 1018.2 hPa North 12.1 km/h 20.4 km/h 69 % 0 mm
19:37 12.1 °C 6.6 °C 1018.2 hPa North 12.4 km/h 18.5 km/h 69 % 0 mm
19:42 12.1 °C 6.6 °C 1018.2 hPa NNW 12.2 km/h 18.5 km/h 69 % 0 mm
19:47 12.1 °C 6.3 °C 1018.2 hPa NW 5.1 km/h 16.7 km/h 68 % 0 mm
19:52 12.1 °C 6.6 °C 1018.2 hPa North 11.4 km/h 18.5 km/h 69 % 0 mm
19:57 12.1 °C 6.3 °C 1018.5 hPa NE 10.5 km/h 18.5 km/h 68 % 0 mm
20:02 12 °C 6.3 °C 1018.2 hPa NNE 9.7 km/h 16.7 km/h 68 % 0 mm
20:07 11.9 °C 6 °C 1018.2 hPa North 10 km/h 16.7 km/h 67 % 0 mm
20:12 11.9 °C 6.2 °C 1018.2 hPa NNW 7.1 km/h 13 km/h 68 % 0 mm
20:17 11.9 °C 5.9 °C 1018.5 hPa North 11.1 km/h 18.5 km/h 67 % 0 mm
20:22 11.8 °C 5.7 °C 1018.5 hPa NE 11.1 km/h 19.3 km/h 66 % 0 mm
20:27 11.8 °C 5.4 °C 1018.5 hPa NNW 14.8 km/h 20.4 km/h 65 % 0 mm
20:32 11.8 °C 5.6 °C 1018.8 hPa NW 7.1 km/h 14.8 km/h 66 % 0 mm
20:37 11.7 °C 5.6 °C 1018.5 hPa NNW 8.4 km/h 14.8 km/h 66 % 0 mm
20:42 11.7 °C 5.3 °C 1019.2 hPa NNW 14.3 km/h 24.1 km/h 65 % 0 mm
20:47 11.6 °C 5.4 °C 1018.8 hPa NNW 9.5 km/h 17.7 km/h 66 % 0 mm
20:52 11.6 °C 5.4 °C 1019.2 hPa NNE 7.6 km/h 20.4 km/h 66 % 0 mm
20:57 11.5 °C 5.2 °C 1019.2 hPa North 11.1 km/h 20.9 km/h 65 % 0 mm
21:02 11.4 °C 5.3 °C 1019.2 hPa NNW 7.9 km/h 17.7 km/h 66 % 0 mm
21:08 11.4 °C 5.3 °C 1019.2 hPa NNE 14.8 km/h 20.4 km/h 66 % 0 mm
21:13 11.3 °C 5.2 °C 1019.2 hPa NNE 10.3 km/h 16.7 km/h 66 % 0 mm
21:18 11.3 °C 5.2 °C 1019.5 hPa NNW 14.6 km/h 29 km/h 66 % 0 mm
21:23 11.3 °C 5.4 °C 1019.5 hPa NNW 10.3 km/h 14.8 km/h 67 % 0 mm
21:28 11.2 °C 5.1 °C 1019.5 hPa North 12.2 km/h 20.4 km/h 66 % 0 mm
21:33 11.2 °C 5.5 °C 1019.5 hPa NNE 9.5 km/h 16.7 km/h 68 % 0 mm
21:38 11.1 °C 5.4 °C 1019.9 hPa NNE 12.2 km/h 20.4 km/h 68 % 0 mm
21:43 11.1 °C 5.2 °C 1019.9 hPa North 12.2 km/h 16.7 km/h 67 % 0 mm
21:48 11.1 °C 4.9 °C 1020.2 hPa NNW 16.6 km/h 24.1 km/h 66 % 0 mm
21:53 11 °C 5.1 °C 1019.9 hPa NNE 10.8 km/h 18.5 km/h 67 % 0 mm
21:59 11 °C 5.3 °C 1019.9 hPa North 11.6 km/h 27.8 km/h 68 % 0 mm
22:04 10.9 °C 5.3 °C 1020.2 hPa North 11.6 km/h 20.4 km/h 68 % 0 mm
22:09 10.9 °C 5.5 °C 1020.2 hPa NNW 10 km/h 24.1 km/h 69 % 0 mm
22:14 10.9 °C 5.5 °C 1020.2 hPa North 10 km/h 18.5 km/h 69 % 0 mm
22:19 10.9 °C 5.6 °C 1020.2 hPa North 8.2 km/h 13 km/h 70 % 0 mm
22:24 10.8 °C 5.6 °C 1020.2 hPa NNW 9.2 km/h 14.5 km/h 70 % 0 mm
22:29 10.8 °C 5.3 °C 1020.2 hPa WNW 7.1 km/h 13 km/h 69 % 0 mm
22:34 10.7 °C 5.3 °C 1020.2 hPa NNW 6.9 km/h 13 km/h 69 % 0 mm
22:39 10.7 °C 5 °C 1020.2 hPa North 13 km/h 18.5 km/h 68 % 0 mm
22:44 10.6 °C 5.1 °C 1020.2 hPa North 15.8 km/h 22.2 km/h 69 % 0 mm
22:49 10.5 °C 5.1 °C 1020.2 hPa NW 6.9 km/h 16.7 km/h 69 % 0 mm
22:54 10.4 °C 5 °C 1020.2 hPa North 13.7 km/h 18.5 km/h 69 % 0 mm
22:59 10.4 °C 5.2 °C 1020.2 hPa NNE 7.2 km/h 11.1 km/h 70 % 0 mm
23:04 10.3 °C 4.9 °C 1020.2 hPa NW 8.5 km/h 20.4 km/h 69 % 0 mm
23:09 10.3 °C 4.8 °C 1020.2 hPa NNE 10.5 km/h 22.5 km/h 69 % 0 mm
23:16 10.2 °C 4.3 °C 1020.5 hPa NE 13.5 km/h 24.1 km/h 67 % 0 mm
23:21 10.1 °C 4.3 °C 1020.5 hPa North 8.5 km/h 22.2 km/h 67 % 0 mm
23:22 10.1 °C 4.3 °C 1020.5 hPa NNE 8.9 km/h 22.2 km/h 67 % 0 mm
23:24 10.1 °C 4.4 °C 1015.1 hPa North 12.7 km/h 25.9 km/h 68 % 0 mm
23:27 10.1 °C 4.2 °C 1020.5 hPa NNE 9.5 km/h 18.5 km/h 67 % 0 mm
23:29 10 °C 4.3 °C 1020.5 hPa NNE 10.9 km/h 19.3 km/h 68 % 0 mm
23:34 10 °C 4.6 °C 1020.5 hPa NW 10.1 km/h 18.5 km/h 69 % 0 mm
23:39 9.9 °C 4.1 °C 1020.5 hPa NNE 12.4 km/h 20.4 km/h 67 % 0 mm
23:44 9.9 °C 4.4 °C 1020.5 hPa North 9.3 km/h 16.7 km/h 69 % 0 mm
23:49 9.8 °C 4.6 °C 1020.5 hPa North 10.9 km/h 16.7 km/h 70 % 0 mm
23:54 9.8 °C 4.6 °C 1020.5 hPa North 7.1 km/h 18.5 km/h 70 % 0 mm
23:59 9.7 °C 4.5 °C 1020.9 hPa NNW 6.9 km/h 13 km/h 70 % 0 mm
Crab Meadow Weather
Compliments of Weather Underground - 3 mb

Script developed by  Jim McMurry - jmcmurry@mwt.net Adapted for the template by  Wim van der Kuil - Leuven-Template.eu

Astronomy: Venus rotates east to west.